Papere Vagabonde

Aviosuperficie Caposile LIKI

Pista 04


Pista 22

Le immagini vengono aggiornate ogni minuto
Cliccare sull'immagine per l'ingrandimento.

METAR LIPZ

LIPZ 010120Z 33005KT 3000 BR NSC 00/M01 Q1021 NOSIG

TAF LIPZ 312300Z 0100/0206 03006KT 2000 BR NSC
  BECMG 0106/0108 7000
  BECMG 0118/0120 2000 BR


      

Alba: 07:31
Tramonto: 17:15

LOW LEVEL SIGWX CHART

ALL WEATHER DATA